Weather History for Sleetmute, AK

Change the Weather History Date:

Tuesday, March 26, 2013

  Actual Average Record
Temperature  
Mean Temperature -13 °F -  
Max Temperature 5 °F 23 °F 41 °F (1999)
Min Temperature -31 °F 5 °F -31 °F (2013)
Degree Days  
Heating Degree Days 78    
Moisture  
Dew Point -20 °F    
Average Humidity 45    
Maximum Humidity 76    
Minimum Humidity 33    
Precipitation  
Precipitation 0.00 in - - ()
Sea Level Pressure  
Sea Level Pressure 30.22 in    
Wind  
Wind Speed 1 mph (South)    
Max Wind Speed 6 mph    
Max Gust Speed -    
Visibility 10 miles    
Events      
Averages and records for this station are not official NWS values.
T = Trace of Precipitation, MM = Missing Value Source: NWS Daily Summary

Daily Weather History Graph

Daily Weather History Graph

Search for Another Location

Airport:

Trip Planner

Search our weather history database for the weather conditions in past years. The results will help you decide how hot, cold, wet, or windy it might be!

Date:

Astronomy

Mar. 26, 2013 Rise Set
Actual Time 8:08 AM AKDT 9:00 PM AKDT
Civil Twilight 7:24 AM AKDT 9:45 PM AKDT
Nautical Twilight 6:29 AM AKDT 10:41 PM AKDT
Astronomical Twilight 5:26 AM AKDT 11:45 PM AKDT
Moon 8:58 PM AKDT (3/26) 7:33 AM AKDT (3/26)
Length of Visible Light 14h 21m
Length of Day
12h 52m
Full, 100% of the Moon is Illuminated
Mar 26
Full
Mar 27
Full
Apr 2
Last Quarter
Apr 10
New
Apr 18
First Quarter

Hourly Weather History & Observations

Time (AKDT) Temp. Windchill Dew Point Humidity Pressure Visibility Wind Dir Wind Speed Gust Speed Precip Events Conditions
12:16 AM -7.6 °F -20.6 °F -20.2 °F 54% 30.10 in 9.0 mi West 5.8 mph - N/A   Clear
1:16 AM -9.4 °F - -23.8 °F 49% 30.12 in 9.0 mi Calm Calm - N/A   Clear
1:36 AM -11.2 °F - -23.8 °F 54% 30.13 in 10.0 mi Calm Calm - N/A   Clear
1:56 AM -16.6 °F - - N/A% 30.14 in 8.0 mi Calm Calm - N/A   Clear
2:16 AM -18.4 °F - - N/A% 30.15 in 10.0 mi Calm Calm - N/A   Clear
2:36 AM -18.4 °F - - N/A% 30.15 in 10.0 mi Calm Calm - N/A   Clear
2:56 AM -22.0 °F - - N/A% 30.16 in 8.0 mi Calm Calm - N/A   Clear
3:16 AM -20.2 °F - - N/A% 30.16 in 5.0 mi Calm Calm - N/A   Clear
3:36 AM -22.0 °F - - N/A% 30.16 in 10.0 mi Calm Calm - N/A   Clear
4:36 AM -23.8 °F - - N/A% 30.17 in 10.0 mi Calm Calm - N/A   Clear
4:56 AM -25.6 °F - - N/A% 30.18 in 10.0 mi Calm Calm - N/A   Clear
5:16 AM -25.6 °F - - N/A% 30.18 in 9.0 mi Calm Calm - N/A   Clear
5:36 AM -27.4 °F - - N/A% 30.18 in 10.0 mi Calm Calm - N/A   Clear
5:56 AM -27.4 °F - - N/A% 30.18 in 10.0 mi Calm Calm - N/A   Clear
6:16 AM -27.4 °F - - N/A% 30.19 in 10.0 mi Calm Calm - N/A   Clear
6:36 AM -27.4 °F - - N/A% 30.19 in 9.0 mi Calm Calm - N/A   Clear
6:56 AM -27.4 °F - - N/A% 30.20 in 10.0 mi Calm Calm - N/A   Clear
7:16 AM -29.2 °F - - N/A% 30.20 in 10.0 mi Calm Calm - N/A   Clear
7:36 AM -29.2 °F - - N/A% 30.20 in 10.0 mi Calm Calm - N/A   Clear
7:56 AM -29.2 °F - - N/A% 30.21 in 10.0 mi Calm Calm - N/A   Clear
8:16 AM -31.0 °F - - N/A% 30.21 in 10.0 mi Calm Calm - N/A   Clear
8:36 AM -31.0 °F - - N/A% 30.22 in 10.0 mi Calm Calm - N/A   Clear
8:56 AM -29.2 °F - - N/A% 30.22 in 10.0 mi Calm Calm - N/A   Clear
9:16 AM -29.2 °F - - N/A% 30.22 in 10.0 mi Calm Calm - N/A   Clear
9:36 AM -27.4 °F - - N/A% 30.23 in 10.0 mi Calm Calm - N/A   Clear
10:16 AM -20.2 °F - - N/A% 30.23 in 10.0 mi Calm Calm - N/A   Clear
10:36 AM -18.4 °F - -23.8 °F 76% 30.24 in 10.0 mi Calm Calm - N/A   Clear
11:16 AM -11.2 °F - -23.8 °F 54% 30.25 in 10.0 mi Calm Calm - N/A   Clear
11:36 AM -9.4 °F - -22.0 °F 54% 30.25 in 10.0 mi Calm Calm - N/A   Clear
11:56 AM -5.8 °F - -23.8 °F 42% 30.25 in 10.0 mi Calm Calm - N/A   Clear
12:16 PM -4.0 °F - -20.2 °F 46% 30.25 in 10.0 mi Calm Calm - N/A   Clear
12:36 PM -2.2 °F - -18.4 °F 46% 30.25 in 10.0 mi Calm Calm - N/A   Clear
12:56 PM -0.4 °F -10.4 °F -20.2 °F 39% 30.25 in 10.0 mi ESE 4.6 mph - N/A   Mostly Cloudy
1:16 PM -0.4 °F - -20.2 °F 39% 30.25 in 10.0 mi Calm Calm - N/A   Partly Cloudy
1:36 PM 1.4 °F - -18.4 °F 39% 30.25 in 10.0 mi Calm Calm - N/A   Scattered Clouds
1:56 PM 1.4 °F -9.9 °F -18.4 °F 39% 30.25 in 10.0 mi SSW 5.8 mph - N/A   Mostly Cloudy
2:16 PM 1.4 °F -8.3 °F -18.4 °F 39% 30.25 in 10.0 mi SW 4.6 mph - N/A   Mostly Cloudy
2:36 PM 1.4 °F -9.9 °F -14.8 °F 47% 30.25 in 10.0 mi SW 5.8 mph - N/A   Mostly Cloudy
2:56 PM 1.4 °F -8.3 °F -18.4 °F 39% 30.25 in 10.0 mi West 4.6 mph - N/A   Mostly Cloudy
3:16 PM 3.2 °F -6.2 °F -14.8 °F 43% 30.25 in 10.0 mi SSW 4.6 mph - N/A   Partly Cloudy
3:36 PM 3.2 °F -4.2 °F -16.6 °F 39% 30.25 in 10.0 mi SSE 3.5 mph - N/A   Clear
3:56 PM 3.2 °F -6.2 °F -14.8 °F 43% 30.25 in 10.0 mi South 4.6 mph - N/A   Clear
4:16 PM 3.2 °F -4.2 °F -18.4 °F 36% 30.25 in 10.0 mi WSW 3.5 mph - N/A   Clear
4:36 PM 3.2 °F -4.2 °F -14.8 °F 43% 30.25 in 10.0 mi South 3.5 mph - N/A   Clear
4:56 PM 3.2 °F -6.2 °F -16.6 °F 39% 30.25 in 10.0 mi SE 4.6 mph - N/A   Clear
5:16 PM 3.2 °F - -16.6 °F 39% 30.25 in 10.0 mi Calm Calm - N/A   Clear
5:36 PM 5.0 °F - -18.4 °F 33% 30.25 in 10.0 mi Calm Calm - N/A   Clear
5:56 PM 5.0 °F - -16.6 °F 36% 30.25 in 10.0 mi Calm Calm - N/A   Clear
6:16 PM 5.0 °F -2.1 °F -18.4 °F 33% 30.25 in 10.0 mi SSE 3.5 mph - N/A   Clear
6:36 PM 5.0 °F -5.6 °F -16.6 °F 36% 30.25 in 10.0 mi SSE 5.8 mph - N/A   Clear
6:56 PM 5.0 °F -4.1 °F -18.4 °F 33% 30.25 in 10.0 mi South 4.6 mph - N/A   Clear
7:16 PM 5.0 °F -5.6 °F -18.4 °F 33% 30.25 in 10.0 mi SSE 5.8 mph - N/A   Clear
9:36 PM -2.2 °F - -20.2 °F 42% 30.27 in 5.0 mi Calm Calm - N/A   Clear
10:36 PM -9.4 °F - -20.2 °F 59% 30.28 in 10.0 mi Calm Calm - N/A   Clear
10:56 PM -11.2 °F - -23.8 °F 54% 30.28 in 10.0 mi Calm Calm - N/A   Clear
11:16 PM -11.2 °F - -22.0 °F 59% 30.28 in 10.0 mi Calm Calm - N/A   Clear
11:36 PM -13.0 °F - -23.8 °F 59% 30.28 in 10.0 mi Calm Calm - N/A   Clear
11:56 PM -14.8 °F - -25.6 °F 58% 30.28 in 10.0 mi Calm Calm - N/A   Clear